AIC6643 VECC-VAPO

Flight info

Callsign AIC6643
Flight time 2h 12m
Altitude 38000
Route FI19L DCT D314O DCT CC201 DCT JJS G450 AAU DCT PAPMA DCT CI28 DCT FI28
Aircraft A320/M-SDE3FGHIRWY/LB1

Departure

Time 2026-05-04 15:45
Airport Netaji Subhash Chandra Bose International Airport (VECC)

Arrival

Time 2026-05-04 17:57
Airport Pune International Airport (VAPO)
Time Latitude Longitude Altitude Speed Heading
2026-05-04 15:20 22.64307 88.44053 24 ft 0 kts 275°
2026-05-04 15:36 22.64305 88.44077 23 ft 4 kts 278°
2026-05-04 15:36 22.64299 88.44105 26 ft 4 kts 286°
2026-05-04 15:36 22.64289 88.44131 23 ft 4 kts 308°
2026-05-04 15:37 22.64272 88.44145 24 ft 2 kts
2026-05-04 15:37 22.64271 88.44145 24 ft 0 kts
2026-05-04 15:39 22.64291 88.44148 23 ft 8 kts
2026-05-04 15:40 22.64377 88.44158 23 ft 17 kts
2026-05-04 15:40 22.64517 88.44175 24 ft 24 kts
2026-05-04 15:40 22.64703 88.44195 24 ft 30 kts
2026-05-04 15:40 22.64930 88.44223 24 ft 35 kts
2026-05-04 15:41 22.65063 88.44263 26 ft 11 kts 55°
2026-05-04 15:41 22.65091 88.44337 24 ft 14 kts 56°
2026-05-04 15:41 22.65194 88.44387 26 ft 20 kts
2026-05-04 15:41 22.65360 88.44402 24 ft 27 kts
2026-05-04 15:42 22.65569 88.44431 24 ft 33 kts
2026-05-04 15:42 22.65818 88.44459 24 ft 38 kts
2026-05-04 15:42 22.66040 88.44454 24 ft 32 kts
2026-05-04 15:42 22.66273 88.44488 23 ft 37 kts
2026-05-04 15:43 22.66546 88.44522 23 ft 42 kts
2026-05-04 15:43 22.66843 88.44582 24 ft 45 kts
2026-05-04 15:43 22.67159 88.44616 24 ft 36 kts
2026-05-04 15:43 22.67305 88.44749 24 ft 31 kts 59°
2026-05-04 15:44 22.67322 88.44963 30 ft 23 kts 110°
2026-05-04 15:44 22.67222 88.44987 29 ft 17 kts 184°
2026-05-04 15:44 22.66879 88.44951 27 ft 94 kts 187°
2026-05-04 15:44 22.65964 88.44848 35 ft 168 kts 183°
2026-05-04 15:45 22.64763 88.44709 752 ft 177 kts 185°
2026-05-04 15:45 22.63505 88.44543 1584 ft 191 kts 186°
2026-05-04 15:45 22.62209 88.43986 2252 ft 214 kts 220°
2026-05-04 15:45 22.61451 88.42525 2629 ft 242 kts 259°
2026-05-04 15:46 22.61719 88.40652 3028 ft 269 kts 297°
2026-05-04 15:46 22.63045 88.39201 3719 ft 279 kts 333°
2026-05-04 15:46 22.64934 88.38780 4511 ft 283 kts
2026-05-04 15:46 22.66802 88.39407 4862 ft 282 kts 30°
2026-05-04 15:47 22.68425 88.40517 4972 ft 279 kts 37°
2026-05-04 15:47 22.70006 88.41732 5005 ft 279 kts 37°
2026-05-04 15:47 22.71614 88.42969 5574 ft 284 kts 37°
2026-05-04 15:47 22.73244 88.44173 6518 ft 285 kts 29°
2026-05-04 15:48 22.75163 88.44665 7293 ft 289 kts 356°
2026-05-04 15:48 22.77058 88.43975 8059 ft 293 kts 324°
2026-05-04 15:48 22.79266 88.40331 9723 ft 297 kts 291°
2026-05-04 15:49 22.80026 88.38214 10231 ft 311 kts 291°
2026-05-04 15:49 22.80854 88.35962 10523 ft 330 kts 292°
2026-05-04 15:49 22.81707 88.33660 11126 ft 336 kts 292°
2026-05-04 15:49 22.82586 88.31297 11835 ft 340 kts 292°
2026-05-04 15:50 22.83475 88.28907 12557 ft 343 kts 292°
2026-05-04 15:50 22.84322 88.26478 13269 ft 346 kts 286°
2026-05-04 15:50 22.84759 88.23906 13919 ft 350 kts 274°
2026-05-04 15:50 22.84741 88.21262 14546 ft 352 kts 268°
2026-05-04 15:51 22.84650 88.18601 15185 ft 354 kts 268°
2026-05-04 15:51 22.84557 88.15920 15818 ft 357 kts 268°
2026-05-04 15:51 22.84466 88.13262 16435 ft 359 kts 268°
2026-05-04 15:51 22.84373 88.10555 17053 ft 361 kts 268°
2026-05-04 15:52 22.84279 88.07825 17681 ft 363 kts 267°
2026-05-04 15:52 22.84185 88.05086 18293 ft 365 kts 267°
2026-05-04 15:52 22.84093 88.02331 18818 ft 367 kts 267°
2026-05-04 15:52 22.83999 87.99556 19332 ft 369 kts 267°
2026-05-04 15:53 22.83905 87.96771 19844 ft 371 kts 266°
2026-05-04 15:53 22.83810 87.93966 20357 ft 374 kts 266°
2026-05-04 15:53 22.83715 87.91141 20865 ft 376 kts 266°
2026-05-04 15:53 22.83619 87.88298 21380 ft 379 kts 266°
2026-05-04 15:54 22.83521 87.85473 21895 ft 380 kts 266°
2026-05-04 15:54 22.83419 87.82596 22384 ft 383 kts 266°
2026-05-04 15:54 22.83316 87.79700 22877 ft 386 kts 266°
2026-05-04 15:54 22.83213 87.76780 23370 ft 389 kts 266°
2026-05-04 15:55 22.83107 87.73842 23786 ft 391 kts 266°
2026-05-04 15:55 22.83002 87.70892 24205 ft 393 kts 266°
2026-05-04 15:55 22.82925 87.67930 24657 ft 393 kts 267°
2026-05-04 15:55 22.82894 87.64969 25087 ft 394 kts 268°
2026-05-04 15:56 22.82889 87.62038 25494 ft 395 kts 268°
2026-05-04 15:56 22.82894 87.59053 25893 ft 396 kts 268°
2026-05-04 15:56 22.82896 87.56064 26281 ft 397 kts 268°
2026-05-04 15:56 22.82889 87.53063 26662 ft 399 kts 268°
2026-05-04 15:57 22.82871 87.50058 27028 ft 400 kts 268°
2026-05-04 15:57 22.82845 87.47037 27395 ft 401 kts 268°
2026-05-04 15:57 22.82819 87.44008 27738 ft 403 kts 268°
2026-05-04 15:57 22.82792 87.40967 28093 ft 404 kts 268°
2026-05-04 15:58 22.82766 87.37919 28434 ft 405 kts 268°
2026-05-04 15:58 22.82740 87.34902 28771 ft 407 kts 268°
2026-05-04 15:58 22.82714 87.31836 29084 ft 408 kts 268°
2026-05-04 15:58 22.82689 87.28743 29312 ft 412 kts 268°
2026-05-04 15:59 22.82661 87.25622 29589 ft 415 kts 268°
2026-05-04 15:59 22.82633 87.22491 29880 ft 417 kts 268°
2026-05-04 15:59 22.82613 87.20405 30047 ft 418 kts 268°
2026-05-04 15:59 22.82568 87.16185 30373 ft 420 kts 268°
2026-05-04 16:00 22.82535 87.13016 30623 ft 421 kts 268°
2026-05-04 16:00 22.82505 87.09878 30876 ft 422 kts 268°
2026-05-04 16:00 22.82475 87.06692 31108 ft 424 kts 268°
2026-05-04 16:00 22.82444 87.03492 31333 ft 425 kts 268°
2026-05-04 16:01 22.82412 87.00288 31586 ft 425 kts 268°
2026-05-04 16:01 22.82379 86.97087 31912 ft 424 kts 268°
2026-05-04 16:01 22.82345 86.93895 32246 ft 423 kts 268°
2026-05-04 16:01 22.82309 86.90706 32522 ft 423 kts 268°
2026-05-04 16:02 22.82271 86.87517 32832 ft 422 kts 268°
2026-05-04 16:02 22.82234 86.84338 33155 ft 421 kts 268°
2026-05-04 16:02 22.82163 86.78048 33846 ft 419 kts 268°
2026-05-04 16:03 22.82127 86.74899 34140 ft 418 kts 268°
2026-05-04 16:03 22.82089 86.71757 34401 ft 417 kts 268°
2026-05-04 16:03 22.82051 86.68612 34653 ft 416 kts 268°
2026-05-04 16:03 22.82013 86.65479 34909 ft 415 kts 268°
2026-05-04 16:04 22.81974 86.62350 35164 ft 415 kts 268°
2026-05-04 16:04 22.81891 86.56110 35642 ft 414 kts 268°
2026-05-04 16:04 22.81847 86.53036 35879 ft 413 kts 268°
2026-05-04 16:05 22.81800 86.49930 36121 ft 412 kts 268°
2026-05-04 16:05 22.81755 86.46830 36362 ft 411 kts 268°
2026-05-04 16:05 22.81673 86.40641 36801 ft 410 kts 268°
2026-05-04 16:06 22.81630 86.37554 37012 ft 409 kts 268°
2026-05-04 16:06 22.81509 86.29362 37576 ft 408 kts 268°
2026-05-04 16:07 22.81445 86.25297 37846 ft 407 kts 268°
2026-05-04 16:07 22.81065 86.16147 37976 ft 403 kts 258°
2026-05-04 16:08 22.80453 86.13188 37971 ft 401 kts 257°
2026-05-04 16:09 22.77395 85.98502 37975 ft 400 kts 257°
2026-05-04 16:10 22.74929 85.86737 37992 ft 401 kts 257°
2026-05-04 16:11 22.72465 85.74972 37985 ft 401 kts 257°
2026-05-04 16:12 22.68746 85.57314 38015 ft 402 kts 257°
2026-05-04 16:13 22.66249 85.45553 38021 ft 402 kts 257°
2026-05-04 16:14 22.63741 85.33713 37986 ft 405 kts 257°
2026-05-04 16:16 22.60559 85.18847 37999 ft 408 kts 257°
2026-05-04 16:17 22.57365 85.03896 38003 ft 408 kts 256°
2026-05-04 16:18 22.54784 84.91957 37986 ft 409 kts 256°
2026-05-04 16:19 22.51502 84.76970 37988 ft 410 kts 255°
2026-05-04 16:20 22.48094 84.62056 37996 ft 409 kts 255°
2026-05-04 16:22 22.44711 84.47183 37981 ft 408 kts 256°
2026-05-04 16:23 22.40625 84.29331 37979 ft 407 kts 255°
2026-05-04 16:25 22.36493 84.11396 37932 ft 414 kts 256°
2026-05-04 16:26 22.31609 83.90309 37927 ft 413 kts 255°
2026-05-04 16:28 22.28202 83.75181 37917 ft 416 kts 255°
2026-05-04 16:29 22.23378 83.53985 37916 ft 416 kts 255°
2026-05-04 16:31 22.19919 83.38834 37906 ft 423 kts 255°
2026-05-04 16:32 22.15567 83.20033 37881 ft 437 kts 255°
2026-05-04 16:33 22.12605 83.07256 37873 ft 440 kts 255°
2026-05-04 16:34 22.10358 82.97643 37874 ft 441 kts 255°
2026-05-04 16:35 22.05857 82.78413 37884 ft 443 kts 255°
2026-05-04 16:36 22.03595 82.68820 37875 ft 442 kts 255°
2026-05-04 16:37 22.01327 82.59183 37862 ft 442 kts 255°
2026-05-04 16:38 21.98296 82.46400 37860 ft 442 kts 255°
2026-05-04 16:39 21.94484 82.30385 37854 ft 441 kts 255°
2026-05-04 16:40 21.91437 82.17632 37849 ft 441 kts 255°
2026-05-04 16:41 21.87608 82.01677 37848 ft 440 kts 255°
2026-05-04 16:43 21.83753 81.85778 37843 ft 440 kts 254°
2026-05-04 16:43 21.81419 81.76239 37841 ft 439 kts 254°
2026-05-04 16:45 21.76638 81.57259 37837 ft 439 kts 252°
2026-05-04 16:46 21.72232 81.41543 37822 ft 439 kts 253°
2026-05-04 16:47 21.68781 81.28983 37821 ft 439 kts 253°
2026-05-04 16:48 21.65454 81.16352 37821 ft 439 kts 253°
2026-05-04 16:49 21.62127 81.03774 37823 ft 439 kts 253°
2026-05-04 16:50 21.58767 80.91169 37808 ft 439 kts 253°
2026-05-04 16:51 21.56244 80.81724 37814 ft 439 kts 253°
2026-05-04 16:52 21.52882 80.69175 37791 ft 438 kts 253°
2026-05-04 16:53 21.50350 80.59737 37785 ft 438 kts 253°
2026-05-04 16:54 21.46985 80.47200 37793 ft 439 kts 253°
2026-05-04 16:55 21.41884 80.28288 37775 ft 441 kts 253°
2026-05-04 16:56 21.37617 80.12526 37782 ft 441 kts 253°
2026-05-04 16:57 21.35041 80.03065 37771 ft 440 kts 253°
2026-05-04 16:58 21.31619 79.90520 37780 ft 439 kts 253°
2026-05-04 17:00 21.26460 79.71669 37769 ft 439 kts 253°
2026-05-04 17:01 21.22171 79.56033 37766 ft 438 kts 253°
2026-05-04 17:02 21.18715 79.43499 37775 ft 439 kts 253°
2026-05-04 17:03 21.16131 79.34142 37794 ft 438 kts 253°
2026-05-04 17:03 21.13530 79.24763 37787 ft 438 kts 253°
2026-05-04 17:04 21.10059 79.12289 37777 ft 439 kts 253°
2026-05-04 17:05 21.06426 78.99804 37772 ft 439 kts 251°
2026-05-04 17:06 21.03375 78.90592 37780 ft 440 kts 250°
2026-05-04 17:07 21.00687 78.82368 37785 ft 440 kts 251°
2026-05-04 17:07 20.98360 78.75129 37783 ft 440 kts 251°
2026-05-04 17:08 20.95371 78.65892 37786 ft 440 kts 251°
2026-05-04 17:09 20.93362 78.59713 37792 ft 440 kts 251°
2026-05-04 17:09 20.91349 78.53532 37791 ft 440 kts 251°
2026-05-04 17:10 20.86329 78.38116 37789 ft 440 kts 251°
2026-05-04 17:11 20.84304 78.31939 37783 ft 440 kts 251°
2026-05-04 17:12 20.81266 78.22664 37790 ft 441 kts 251°
2026-05-04 17:13 20.76207 78.07269 37802 ft 441 kts 251°
2026-05-04 17:14 20.72146 77.94918 37805 ft 440 kts 251°
2026-05-04 17:15 20.69106 77.85705 37778 ft 441 kts 251°
2026-05-04 17:16 20.65061 77.73324 37797 ft 442 kts 251°
2026-05-04 17:17 20.61033 77.60982 37803 ft 442 kts 251°
2026-05-04 17:18 20.56976 77.48576 37811 ft 443 kts 251°
2026-05-04 17:19 20.52989 77.36195 37817 ft 443 kts 253°
2026-05-04 17:20 20.49310 77.23667 37818 ft 443 kts 253°
2026-05-04 17:20 20.46498 77.14291 37825 ft 443 kts 253°
2026-05-04 17:21 20.42728 77.01838 37831 ft 443 kts 253°
2026-05-04 17:22 20.40837 76.95598 37820 ft 443 kts 253°
2026-05-04 17:23 20.37047 76.83112 37837 ft 443 kts 253°
2026-05-04 17:24 20.33886 76.73905 37850 ft 443 kts 250°
2026-05-04 17:25 20.29453 76.61654 37848 ft 443 kts 251°
2026-05-04 17:26 20.25125 76.49384 37850 ft 444 kts 251°
2026-05-04 17:27 20.19651 76.34003 37860 ft 445 kts 250°
2026-05-04 17:28 20.15285 76.21734 37859 ft 445 kts 251°
2026-05-04 17:29 20.08705 76.03322 37871 ft 445 kts 251°
2026-05-04 17:31 20.03182 75.87950 37870 ft 445 kts 251°
2026-05-04 17:32 19.97662 75.72644 37884 ft 444 kts 251°
2026-05-04 17:33 19.93258 75.60376 37886 ft 444 kts 251°
2026-05-04 17:34 19.88841 75.48180 37882 ft 444 kts 251°
2026-05-04 17:35 19.84995 75.39352 37228 ft 435 kts 236°
2026-05-04 17:35 19.81076 75.34531 36200 ft 428 kts 231°
2026-05-04 17:35 19.79122 75.32164 35699 ft 424 kts 231°
2026-05-04 17:36 19.77216 75.29840 35213 ft 421 kts 232°
2026-05-04 17:36 19.75306 75.27507 34736 ft 417 kts 231°
2026-05-04 17:36 19.73409 75.25192 34261 ft 414 kts 231°
2026-05-04 17:36 19.71522 75.22893 33796 ft 411 kts 231°
2026-05-04 17:37 19.69648 75.20613 33267 ft 408 kts 231°
2026-05-04 17:37 19.67787 75.18349 32756 ft 406 kts 231°
2026-05-04 17:37 19.65935 75.16101 32244 ft 404 kts 231°
2026-05-04 17:37 19.64088 75.13860 31738 ft 402 kts 231°
2026-05-04 17:38 19.62278 75.11666 31249 ft 400 kts 231°
2026-05-04 17:38 19.60447 75.09448 30768 ft 399 kts 232°
2026-05-04 17:38 19.58626 75.07238 30294 ft 397 kts 232°
2026-05-04 17:38 19.56810 75.05037 29785 ft 396 kts 232°
2026-05-04 17:39 19.53219 75.00697 28177 ft 386 kts 232°
2026-05-04 17:39 19.51463 74.98574 27431 ft 381 kts 232°
2026-05-04 17:39 19.49753 74.96504 26684 ft 375 kts 231°
2026-05-04 17:40 19.48048 74.94443 25960 ft 369 kts 231°
2026-05-04 17:40 19.46367 74.92411 25248 ft 364 kts 231°
2026-05-04 17:40 19.44709 74.90409 24558 ft 359 kts 231°
2026-05-04 17:40 19.43080 74.88440 23883 ft 353 kts 231°
2026-05-04 17:41 19.41467 74.86494 23191 ft 348 kts 231°
2026-05-04 17:41 19.39881 74.84581 22381 ft 344 kts 230°
2026-05-04 17:41 19.38307 74.82684 21600 ft 341 kts 230°
2026-05-04 17:41 19.36747 74.80802 20856 ft 338 kts 230°
2026-05-04 17:42 19.35207 74.78942 20130 ft 335 kts 230°
2026-05-04 17:42 19.33699 74.77120 19437 ft 332 kts 230°
2026-05-04 17:42 19.32182 74.75289 18766 ft 330 kts 230°
2026-05-04 17:42 19.30672 74.73468 18096 ft 327 kts 230°
2026-05-04 17:43 19.29178 74.71671 17357 ft 324 kts 230°
2026-05-04 17:43 19.27695 74.69889 16658 ft 321 kts 230°
2026-05-04 17:43 19.26228 74.68126 15984 ft 318 kts 230°
2026-05-04 17:43 19.24771 74.66376 15331 ft 315 kts 230°
2026-05-04 17:44 19.23296 74.64685 14704 ft 312 kts 223°
2026-05-04 17:44 19.21599 74.63266 14100 ft 309 kts 218°
2026-05-04 17:44 19.19905 74.61929 13484 ft 306 kts 218°
2026-05-04 17:44 19.18206 74.60582 12791 ft 304 kts 218°
2026-05-04 17:45 19.16523 74.59246 12144 ft 301 kts 217°
2026-05-04 17:45 19.14853 74.57922 11527 ft 298 kts 217°
2026-05-04 17:45 19.13201 74.56614 11296 ft 298 kts 216°
2026-05-04 17:45 19.11546 74.55305 11055 ft 296 kts 216°
2026-05-04 17:46 19.10459 74.54445 10892 ft 294 kts 216°
2026-05-04 17:46 19.08280 74.52718 10583 ft 290 kts 216°
2026-05-04 17:46 19.06684 74.51453 10355 ft 291 kts 215°
2026-05-04 17:46 19.05042 74.50154 10126 ft 306 kts 215°
2026-05-04 17:47 19.03296 74.48776 9902 ft 318 kts 216°
2026-05-04 17:47 19.01520 74.47373 9765 ft 319 kts 215°
2026-05-04 17:47 18.99744 74.45969 9639 ft 319 kts 216°
2026-05-04 17:47 18.97971 74.44571 9508 ft 318 kts 215°
2026-05-04 17:48 18.96798 74.43645 9428 ft 318 kts 215°
2026-05-04 17:48 18.94434 74.41779 9253 ft 316 kts 215°
2026-05-04 17:48 18.92696 74.40406 9138 ft 316 kts 216°
2026-05-04 17:48 18.90935 74.39015 9012 ft 317 kts 216°
2026-05-04 17:49 18.89173 74.37622 8887 ft 315 kts 216°
2026-05-04 17:49 18.87413 74.36232 8766 ft 315 kts 216°
2026-05-04 17:49 18.85662 74.34853 8644 ft 314 kts 216°
2026-05-04 17:49 18.83907 74.33471 8521 ft 316 kts 216°
2026-05-04 17:50 18.82737 74.32548 8438 ft 315 kts 217°
2026-05-04 17:50 18.80980 74.31165 8317 ft 316 kts 217°
2026-05-04 17:50 18.79221 74.29780 8195 ft 315 kts 217°
2026-05-04 17:50 18.76899 74.27950 8032 ft 314 kts 217°
2026-05-04 17:51 18.75718 74.27020 7955 ft 313 kts 218°
2026-05-04 17:51 18.73996 74.25665 7835 ft 312 kts 218°
2026-05-04 17:51 18.71666 74.23829 7449 ft 313 kts 218°
2026-05-04 17:51 18.69929 74.22462 6989 ft 310 kts 218°
2026-05-04 17:52 18.68785 74.21563 6735 ft 310 kts 218°
2026-05-04 17:52 18.67063 74.20208 6320 ft 308 kts 219°
2026-05-04 17:52 18.65346 74.18857 6243 ft 309 kts 219°
2026-05-04 17:52 18.63064 74.17062 6076 ft 308 kts 219°
2026-05-04 17:53 18.61350 74.15715 5937 ft 308 kts 219°
2026-05-04 17:53 18.59634 74.14366 5802 ft 308 kts 219°
2026-05-04 17:53 18.58501 74.13468 5711 ft 306 kts 221°
2026-05-04 17:53 18.57203 74.11798 5569 ft 286 kts 249°
2026-05-04 17:54 18.56912 74.09793 5161 ft 276 kts 277°
2026-05-04 17:54 18.57180 74.07816 4880 ft 264 kts 278°
2026-05-04 17:54 18.57354 74.05988 4694 ft 240 kts 276°
2026-05-04 17:54 18.57462 74.04263 4124 ft 232 kts 274°
2026-05-04 17:55 18.57562 74.02602 3684 ft 221 kts 274°
2026-05-04 17:55 18.57659 74.01038 3391 ft 206 kts 274°
2026-05-04 17:55 18.57750 73.99591 3146 ft 190 kts 273°
2026-05-04 17:55 18.57832 73.98295 2915 ft 167 kts 273°
2026-05-04 17:56 18.57903 73.97147 2716 ft 149 kts 273°
2026-05-04 17:56 18.57969 73.96103 2529 ft 139 kts 274°
2026-05-04 17:56 18.58031 73.95095 2348 ft 136 kts 273°
2026-05-04 17:56 18.58088 73.94107 2200 ft 136 kts 271°
2026-05-04 17:57 18.58157 73.93108 2037 ft 136 kts 274°
2026-05-04 17:57 18.58236 73.91830 1948 ft 117 kts 274°
2026-05-04 17:57 18.58253 73.91397 1948 ft 58 kts 275°
2026-05-04 17:57 18.58266 73.91256 1946 ft 0 kts 275°
2026-05-04 17:58 18.58265 73.91266 1946 ft 2 kts 275°
2026-05-04 17:58 18.58265 73.91267 1946 ft 0 kts 275°
2026-05-04 17:58 18.58268 73.91230 1946 ft 5 kts 275°